Location: Ljubljana
(46.0553°N, 14.5144°E)
Time: 15:22:05
(UTC+01:00)

X-37B - Visible Passes

Search period start: 27 October 2020 00:00
Search period end: 06 November 2020 00:00
Orbit: 382 x 392 km, 45.0° (Epoch: 15 October)

Date Brightness Start Highest point End Pass type
(mag) Time Alt. Az. Time Alt. Az. Time Alt. Az.
01 Nov 3.6 05:25:51 10° S 05:27:11 12° SE 05:28:33 10° ESE visible
02 Nov 2.4 06:01:59 10° SW 06:04:49 29° SSE 06:07:39 10° E visible
03 Nov 3.0 05:04:29 12° SSW 05:06:25 19° SSE 05:08:48 10° ESE visible
04 Nov 3.8 04:09:00 11° SE 04:09:00 11° SE 04:09:25 10° ESE visible
04 Nov 1.6 05:41:18 11° SW 05:44:10 43° SSE 05:47:13 10° E visible
05 Nov 2.1 04:45:40 29° SSE 04:45:42 29° SSE 04:48:32 10° E visible
